Regional Weather Roundup
Issued by NWS

Home | Current Version | Previous Version | Graphics & Text | Print | Product List | Glossary On
Versions: 1 2 3 4 5 6 7 8 9 10 11 12 13 14 15 16 17 18 19 20 21 22 23 24 25 26 27 28 29 30 31 32 33 34 35 36 37 38 39 40 41 42 43 44 45 46 47 48 49 50
000
ASUS43 KOAX 291902
RWRNE

WEATHER ROUNDUP FOR NEBRASKA
NATIONAL WEATHER SERVICE OMAHA NE
200 PM CDT WED OCT 29 2014

NOTES: SATELLITE DATA IS BEING USED TO AUGMENT CLOUD COVER ABOVE
       12000 FEET.
       "FAIR" INDICATES FEW OR NO CLOUDS BELOW 12,000 FEET WITH NO
       SIGNIFICANT WEATHER AND/OR OBSTRUCTIONS TO VISIBILITY.

  * THESE STATIONS DO NOT REPORT WEATHER SUCH AS RAIN...SNOW OR FOG.

NEZ001>004-019>022-054>056-292000-
NEBRASKA PANHANDLE

CITY           SKY/WX    TMP DP  RH WIND       PRES   REMARKS
SCOTTSBLUFF    SUNNY     66  27  23 W6        30.03F
ALLIANCE       SUNNY     65  20  17 W16       30.01F
CHADRON        SUNNY     64  26  23 CALM      29.98F
KIMBALL        SUNNY     66  22  19 SW16      30.06F
SIDNEY         SUNNY     66  26  22 SW16G26   30.08F
$$

NEZ057>060-069>072-079>082-292000-
SOUTHWEST NEBRASKA

CITY           SKY/WX    TMP DP  RH WIND       PRES   REMARKS
NORTH PLATTE   SUNNY     64  25  22 S9        30.05F
IMPERIAL       SUNNY     68  22  17 W10       30.07F
LEXINGTON      SUNNY     60  29  30 S10G17    30.09F
MCCOOK         SUNNY     64  30  27 SW8       30.09F
OGALLALA       SUNNY     68  26  20 W6        30.05F
$$

NEZ005>010-023>029-035>040-094-292000-
NORTH CENTRAL NEBRASKA

CITY           SKY/WX    TMP DP  RH WIND       PRES   REMARKS
VALENTINE      SUNNY     61  25  25 S10       30.00F
AINSWORTH      SUNNY     59  24  26 S15       30.02F
BROKEN BOW     SUNNY     60  29  30 S13G24    30.07F
O`NEILL        SUNNY     57  30  34 S16       30.08F
ORD            SUNNY     57  28  33 S13       30.08F
THEDFORD       SUNNY     64  24  21 S8        30.03F
$$

NEZ041-046>049-061>064-073>077-083>087-292000-
SOUTH CENTRAL NEBRASKA

CITY           SKY/WX    TMP DP  RH WIND       PRES   REMARKS
GRAND ISLAND   SUNNY     58  28  32 S16       30.13F
AURORA         SUNNY     56  28  32 S13G18    30.13F
HASTINGS       SUNNY     58  28  32 S12       30.12F
HEBRON         SUNNY     59  26  28 S10G16    30.15F
HOLDREGE       SUNNY     59  27  29 S12G21    30.10F
KEARNEY *      SUNNY     61  28  29 SE17G23   30.11F
YORK           SUNNY     55  32  41 S9        30.15F
$$

NEZ011>018-030>034-042>045-292000-
NORTHEAST NEBRASKA

CITY           SKY/WX    TMP DP  RH WIND       PRES   REMARKS
NORFOLK        SUNNY     53  31  42 S10       30.13F
ALBION         SUNNY     54  29  38 S10       30.12F
BLAIR          SUNNY     52  31  43 SW7       30.17F
COLUMBUS *     SUNNY     54  30  40 S10       30.16F
FREMONT        SUNNY     53  31  43 CALM      30.17F
TEKAMAH        SUNNY     53  30  41 SW6       30.17F
WAYNE          SUNNY     52  31  44 S5        30.15F
$$

NEZ050>053-065>068-078-088>093-292000-
SOUTHEAST NEBRASKA

CITY           SKY/WX    TMP DP  RH WIND       PRES   REMARKS
LINCOLN        SUNNY     55  34  45 S8        30.18F
OMAHA EPPLEY   SUNNY     52  31  44 VRB5      30.19F
BEATRICE       SUNNY     55  32  42 S6        30.17F
FALLS CITY     SUNNY     57  33  40 CALM      30.20F
NEBRASKA CITY  SUNNY     53  27  36 CALM      30.19F
PLATTSMOUTH    SUNNY     53  28  38 CALM      30.18F
$$

NEZ044-045-051>053-067-292000-
OMAHA AREA

CITY           SKY/WX    TMP DP  RH WIND       PRES   REMARKS
OMAHA EPPLEY   SUNNY     52  31  44 VRB5      30.19F
BLAIR          SUNNY     52  31  43 SW7       30.17F
FREMONT        SUNNY     53  31  43 CALM      30.17F
MILLARD        SUNNY     53  32  45 SW5       30.18F
OFFUTT AFB     SUNNY     53  32  44 VRB2      30.18F
PLATTSMOUTH    SUNNY     53  28  38 CALM      30.18F
WAHOO          FAIR      54  30  40 CALM      30.16F
$$



USA.gov is the U.S. government's official web portal to all federal, state and local government web resources and services.